Location: Bh?mavarapp?du
(16.7041°N, 80.6518°E)
Time: 01:35:19
(UTC+00:00)

Centaur D AC-25 - Pass Details

Date: 21 April 2021
Orbit: 625 x 36459 km, 27.6° (Epoch: 08 May)

Event Time Altitude Azimuth Distance (km) Brightness Sun altitude
Exits shadow 23:06:45 10° 296° (WNW) 3,335 5.4 -17.1°
Reaches altitude 10° 23:06:53 10° 296° (WNW) 3,265 5.3 -17.1°
Maximum altitude 23:12:41 63° 19° (NNE) 752 2.6 -15.8°
Drops below altitude 10° 23:16:13 10° 102° (ESE) 2,011 5.6 -15.0°
Sets 23:18:25 0° 106° (ESE) 3,160 6.7 -14.5°
